TimeCDT,TemperatureF,Dew PointF,Humidity,Sea Level PressureIn,VisibilityMPH,Wind Direction,Wind SpeedMPH,Gust SpeedMPH,PrecipitationIn,Events,Conditions,WindDirDegrees,DateUTC
12:52 AM,54.0,52.0,93,30.06,10.0,SSW,5.8,-,N/A,,Clear,210,2013-06-17 05:52:00
1:52 AM,54.0,52.0,93,30.07,10.0,NW,5.8,-,N/A,,Clear,310,2013-06-17 06:52:00
2:52 AM,54.0,52.0,93,30.05,10.0,WNW,6.9,-,N/A,,Clear,290,2013-06-17 07:52:00
3:52 AM,53.1,51.1,93,30.06,10.0,SW,5.8,-,N/A,,Clear,230,2013-06-17 08:52:00
4:52 AM,51.1,50.0,96,30.06,10.0,WSW,4.6,-,N/A,,Clear,240,2013-06-17 09:52:00
5:52 AM,51.1,50.0,96,30.07,10.0,WSW,6.9,-,N/A,,Clear,250,2013-06-17 10:52:00
6:52 AM,54.0,52.0,93,30.07,10.0,West,3.5,-,N/A,,Clear,280,2013-06-17 11:52:00
7:52 AM,57.9,55.0,90,30.08,10.0,WNW,4.6,-,N/A,,Clear,300,2013-06-17 12:52:00
8:52 AM,61.0,57.9,90,30.10,10.0,NW,4.6,-,N/A,,Clear,320,2013-06-17 13:52:00
9:52 AM,66.0,55.9,70,30.12,10.0,Calm,Calm,-,N/A,,Clear,0,2013-06-17 14:52:00
10:52 AM,66.0,57.9,75,30.13,10.0,West,6.9,-,0.00,,Mostly Cloudy,260,2013-06-17 15:52:00
11:52 AM,68.0,55.9,65,30.16,10.0,WNW,8.1,-,N/A,,Overcast,290,2013-06-17 16:52:00
12:52 PM,72.0,55.0,55,30.10,10.0,ENE,12.7,-,N/A,,Clear,70,2013-06-17 17:52:00
1:52 PM,73.0,53.1,49,30.10,10.0,ENE,10.4,-,N/A,,Clear,70,2013-06-17 18:52:00
2:52 PM,75.9,54.0,46,30.08,10.0,ENE,9.2,-,N/A,,Clear,60,2013-06-17 19:52:00
3:52 PM,77.0,53.1,43,30.06,10.0,East,6.9,-,N/A,,Clear,100,2013-06-17 20:52:00
4:52 PM,77.0,54.0,45,30.09,10.0,ESE,4.6,-,N/A,,Partly Cloudy,120,2013-06-17 21:52:00
5:52 PM,77.0,54.0,45,30.07,10.0,Variable,4.6,-,N/A,,Partly Cloudy,0,2013-06-17 22:52:00
6:52 PM,77.0,52.0,42,30.04,10.0,ENE,5.8,-,N/A,,Partly Cloudy,60,2013-06-17 23:52:00
7:52 PM,73.9,55.0,52,30.04,10.0,NE,10.4,-,N/A,,Partly Cloudy,50,2013-06-18 00:52:00
8:52 PM,71.1,59.0,66,30.04,10.0,ENE,4.6,-,N/A,,Mostly Cloudy,70,2013-06-18 01:52:00
9:52 PM,66.0,57.9,75,30.05,10.0,ENE,4.6,-,N/A,,Clear,70,2013-06-18 02:52:00
10:52 PM,66.0,57.9,75,30.07,10.0,ENE,3.5,-,N/A,,Clear,70,2013-06-18 03:52:00
11:52 PM,62.1,57.9,86,30.07,10.0,Calm,Calm,-,N/A,,Partly Cloudy,0,2013-06-18 04:52:00